Miscellaneous Local Product
Issued by NWS North Platte, NE

Home | Current Version | Previous Version | Text Only | Print | Product List | Glossary On
Versions: 1 2 3 4 5 6 7 8 9 10 11 12 13 14 15 16 17 18 19 20 21 22 23 24 25 26 27 28 29 30 31 32 33 34 35 36 37 38 39 40 41 42 43 44 45 46 47 48 49 50
000
AXUS43 KLBF 290010
MISLBF


WESTERN AND NORTH CENTRAL NEBRASKA HOURLY WEATHER ROUNDUP
NATIONAL WEATHER SERVICE NORTH PLATTE NE
700 PM CDT THU AUG 28 2014

***STATIONS NOT REPORTING VARIABLES SUCH AS SKY/WEATHER OR
PRESSURE ARE PROVIDED BY THE NEBRASKA DEPARTMENT OF
ROADS...RAWS...AND APRS NETWORKS...AND ARE NOT UNDER
NATIONAL WEATHER SERVICE QUALITY CONTROL***

...OBSERVATIONS IN AND NEAR THE EASTERN PANHANDLE OF NEBRASKA...

CITY           SKY/WX    TMP DP  RH WIND       PRES   REMARKS
PINE RIDGE     CLOUDY    67  57  70 W5        29.96F
CHADRON        CLOUDY    64  57  78 SW7       29.97F
ALLIANCE       CLOUDY    67  53  61 N17       29.97F
SIDNEY         CLOUDY    67  56  67 NW14      30.04F
WHITECLAY        N/A     68  54  59 CALM        N/A
RUSHVILLE        N/A     65  56  70 SW6         N/A
GORDON           N/A     71  56  59 SW9         N/A
LISCO            N/A     72  55  56 W8          N/A
BIG SPRINGS      N/A     70  60  70 NW7         N/A
$$

...OBSERVATIONS IN NORTH CENTRAL NEBRASKA...

CITY           SKY/WX    TMP DP  RH WIND       PRES   REMARKS
VALENTINE      CLOUDY    72  63  73 N7        29.91R
THEDFORD       PTSUNNY   64  61  90 NW3       29.91R
AINSWORTH      PTSUNNY   70  67  90 NW5       29.89R THUNDER
O`NEILL        MOSUNNY   82  68  62 S3        29.82S
ORD            MOSUNNY   80  68  66 S8        29.81S
BROKEN BOW     PTSUNNY   81  67  62 S7        29.84R
BROWNLEE         N/A     73  68  83 N18         N/A
SPRINGVIEW       N/A     73  67  82 NW3         N/A
ROSE             N/A     77  70  80 W16         N/A
NEWPORT          N/A     77  70  80 NW13        N/A
SARGENT          N/A     82  68  62 CALM        N/A
COMSTOCK         N/A     86  72  64 S6          N/A  HX  92
CHAMBERS         N/A     81  68  63 S3          N/A
EWING            N/A     80  73  79 S3G12       N/A
$$

...OBSERVATIONS IN SOUTHWEST NEBRASKA AND FAR NORTHEAST COLORADO...

CITY           SKY/WX    TMP DP  RH WIND       PRES   REMARKS
WRAY             N/A     74  58  55 NW16G24   29.99S
HOLYOKE        FAIR      72  55  56 NW15G22   30.00S
IMPERIAL       SUNNY     73  58  59 NW15      29.95R
OGALLALA       MOSUNNY   66  54  64 NW7       29.96R
NORTH PLATTE   PTSUNNY   79  60  52 NW16      29.87S
MCCOOK         MOSUNNY   76  62  62 NW15      29.87S
LEXINGTON      MOSUNNY   79  68  70 S3        29.85S
PAXTON           N/A     75  62  64 W10         N/A
SUTHERLAND       N/A     79  62  56 NW15        N/A
BRADY            N/A     77  65  65 CALM        N/A
GOTHENBURG       N/A     80  60  50 W3          N/A
CALLAWAY         N/A     80  68  67 W8          N/A
$$

...SOME WEATHER OBSERVATIONS FROM AROUND THE REGION...

CITY           SKY/WX    TMP DP  RH WIND       PRES   REMARKS
DENVER         PTSUNNY   63  48  58 W10       30.17S
LARAMIE        PTSUNNY   66  43  43 N9        30.21R
CHEYENNE       PTSUNNY   67  47  48 NE7       30.15F
SCOTTSBLUFF    CLOUDY    70  53  54 N6        30.04F
RAPID CITY     CLOUDY    76  57  51 CALM      29.92F
PIERRE         PTSUNNY   73  67  81 NW9       29.84S
WINNER         FAIR      73  67  81 NW15      29.85S
SIOUX FALLS    CLOUDY    72  69  90 E9        29.84F
OMAHA          CLOUDY    80  71  74 SE9       29.84F
GRAND ISLAND   PTSUNNY   80  70  71 S9        29.83F
KANSAS CITY    PTCLDY    86  68  54 S14       29.86F
WICHITA        CLOUDY    77  66  68 S10       29.87F
HAYS           MOSUNNY   82  63  51 W8        29.85S
LIBERAL        MOSUNNY   84  59  42 N13       29.93R
GOODLAND       MOSUNNY   74  55  51 NW20G26   29.98R
$$



USA.gov is the U.S. government's official web portal to all federal, state and local government web resources and services.